Tracking 19909 objects as of 23-Oct-2019
HD Live streaming from Space Station
objects crossing your sky now

YAOGAN-30 P

Track YAOGAN-30 P now!
10-day predictions


NORAD ID: 44450
Int'l Code: 2019-045B
Perigee: 598.4 km
Apogee: 613.7 km
Inclination: 35.0 °
Period: 96.7 minutes
Semi major axis: 6977 km
RCS: Unknown
Launch date: July 26, 2019
Source: People's Republic of China (PRC)
Launch site: Xichang Space Center, China (XSC)
aabbcc
Your satellite tracking list
Your tracking list is empty




NASA's NSSDC Master Catalog

Two Line Element Set (TLE):
1 44450U 19045B   19295.81041697  .00000195  00000-0  22807-4 0  9996
2 44450  34.9950 168.8691 0010918 338.4504  21.5731 14.89685660 13224
Source of the keplerian elements: AFSPC